2019-051C (44483 NORAD) Tracking and Keplerian Element Data

This shows tracking and keplerian element data for the satellite.

Feedback or suggestion? Click here.




ElementValue
Catalog44483
Name2019-051C
Epoch Orbit0
Epoch Day220.74290815
Epoch Year2019
RAAN299.6794
Inclination9.7973
Eccentricity0.3458452
Argument of Perigee180.5643
Mean Anonmoly227.1942
Mean Motion1.59426758
Decay Rate-1.28E-06
L11 44483U 19051C 19220.74290815 -.00000128 00000-0 00000+0 0 9990
L22 44483 9.7973 299.6794 3458452 180.5643 227.1942 1.59426758 08

Live tracking and technical data element details for 2019-051C (NORAD 44483). 2019-051C can be tracked NOW for your location showing map with azimuth and elevation plus other details from your city location.

Track the satellite on the map from your city or location and see movement details for azimuth, elevation, latitude, longitude, range, height, and movement on the map or in text.







IsCatalogInMostPopularTable: catalog: 44483, numindb: 2
Update: records affected: 1



GetName: 44483 2019-051C

Hit Count: updated at: Wed, 21 Aug 2019 12:44:08 GMT